Time,TemperatureF,DewpointF,PressureIn,WindDirection,WindDirectionDegrees,WindSpeedMPH,WindSpeedGustMPH,Humidity,HourlyPrecipIn,Conditions,Clouds,dailyrainin,SolarRadiationWatts/m^2,SoftwareType,DateUTC
2013-06-07 00:00:00,52.5,52.5,29.88,South,180,15.7,20.1,100,0.00,,,0.00,0.00,VWS V14.01,2013-06-07 07:00:00,
2013-06-07 00:03:00,52.5,52.5,29.88,SW,225,10.1,15.7,100,0.00,,,0.00,0.00,VWS V14.01,2013-06-07 07:03:00,
2013-06-07 00:08:00,52.5,52.5,29.88,SSE,158,5.4,18.8,100,0.00,,,0.00,0.00,VWS V14.01,2013-06-07 07:08:00,
2013-06-07 00:13:00,52.5,52.5,29.88,SSW,202,5.4,18.8,100,0.00,,,0.00,0.00,VWS V14.01,2013-06-07 07:13:00,
2013-06-07 00:15:00,52.5,52.5,29.88,SSW,202,4.9,18.8,100,0.00,,,0.00,0.00,VWS V14.01,2013-06-07 07:15:00,
2013-06-07 00:18:00,52.5,52.5,29.88,SSW,202,7.6,7.6,100,0.00,,,0.00,0.00,VWS V14.01,2013-06-07 07:18:00,
2013-06-07 00:23:00,52.5,52.5,29.88,SSW,202,7.2,12.3,100,0.00,,,0.00,0.00,VWS V14.01,2013-06-07 07:23:00,
2013-06-07 00:28:00,52.3,52.3,29.88,SSW,202,7.6,17.0,100,0.00,,,0.00,0.00,VWS V14.01,2013-06-07 07:28:00,
2013-06-07 00:30:00,52.3,52.3,29.88,SSW,202,5.4,17.0,100,0.00,,,0.00,0.00,VWS V14.01,2013-06-07 07:30:00,
2013-06-07 00:33:00,52.3,52.3,29.88,South,180,12.3,12.3,100,0.00,,,0.00,0.00,VWS V14.01,2013-06-07 07:33:00,
2013-06-07 00:38:00,52.3,52.3,29.88,SE,135,4.5,12.3,100,0.00,,,0.00,0.00,VWS V14.01,2013-06-07 07:38:00,
2013-06-07 00:43:00,52.5,52.5,29.88,WSW,248,6.0,12.3,100,0.00,,,0.00,0.00,VWS V14.01,2013-06-07 07:43:00,
2013-06-07 00:45:00,52.5,52.5,29.88,South,180,5.8,12.3,100,0.00,,,0.00,0.00,VWS V14.01,2013-06-07 07:45:00,
2013-06-07 00:48:00,52.5,52.5,29.88,South,180,12.1,12.1,100,0.00,,,0.00,0.00,VWS V14.01,2013-06-07 07:48:00,
2013-06-07 00:54:00,52.5,52.5,29.88,East,90,6.3,12.1,100,0.00,,,0.00,0.00,VWS V14.01,2013-06-07 07:54:00,
2013-06-07 00:59:00,52.5,52.5,29.85,East,90,6.0,14.8,100,0.00,,,0.00,0.00,VWS V14.01,2013-06-07 07:59:00,
2013-06-07 01:00:00,52.5,52.5,29.85,SSW,202,5.6,14.8,100,0.00,,,0.00,0.00,VWS V14.01,2013-06-07 08:00:00,
2013-06-07 01:04:00,52.5,52.5,29.85,SSW,202,6.5,10.5,100,0.00,,,0.00,0.00,VWS V14.01,2013-06-07 08:04:00,
2013-06-07 01:09:00,52.5,52.5,29.85,NW,315,4.7,10.5,100,0.00,,,0.00,0.00,VWS V14.01,2013-06-07 08:09:00,
2013-06-07 01:14:00,52.3,52.3,29.88,South,180,2.5,10.5,100,0.00,,,0.00,0.00,VWS V14.01,2013-06-07 08:14:00,
2013-06-07 01:15:00,52.3,52.3,29.88,SW,225,10.3,10.5,100,0.00,,,0.00,0.00,VWS V14.01,2013-06-07 08:15:00,
2013-06-07 01:19:00,52.3,52.3,29.88,SSW,202,10.5,12.8,100,0.00,,,0.00,0.00,VWS V14.01,2013-06-07 08:19:00,
2013-06-07 01:24:00,52.3,52.3,29.88,SW,225,5.4,12.8,100,0.00,,,0.00,0.00,VWS V14.01,2013-06-07 08:24:00,
2013-06-07 01:29:00,52.3,52.3,29.85,SSW,202,10.5,12.8,100,0.00,,,0.00,0.00,VWS V14.01,2013-06-07 08:29:00,
2013-06-07 01:30:00,52.3,52.3,29.85,SSW,202,5.8,12.8,100,0.00,,,0.00,0.00,VWS V14.01,2013-06-07 08:30:00,
2013-06-07 01:34:00,52.3,52.3,29.85,SSW,202,8.7,10.3,100,0.00,,,0.00,0.00,VWS V14.01,2013-06-07 08:34:00,
2013-06-07 01:39:00,52.3,52.3,29.85,SSW,202,6.7,10.3,100,0.00,,,0.00,0.00,VWS V14.01,2013-06-07 08:39:00,
2013-06-07 01:44:00,52.3,52.3,29.85,SW,225,2.5,10.3,100,0.00,,,0.00,0.00,VWS V14.01,2013-06-07 08:44:00,
2013-06-07 01:45:00,52.3,52.3,29.85,WSW,248,3.1,10.3,100,0.00,,,0.00,0.00,VWS V14.01,2013-06-07 08:45:00,
2013-06-07 01:49:00,52.2,52.2,29.85,SSE,158,4.3,8.1,100,0.00,,,0.00,0.00,VWS V14.01,2013-06-07 08:49:00,
2013-06-07 01:54:00,52.2,52.2,29.85,SW,225,7.2,15.7,100,0.00,,,0.00,0.00,VWS V14.01,2013-06-07 08:54:00,
2013-06-07 01:59:00,52.2,52.2,29.85,South,180,6.0,15.7,100,0.00,,,0.00,0.00,VWS V14.01,2013-06-07 08:59:00,
2013-06-07 02:00:00,52.2,52.2,29.85,South,180,6.0,15.7,100,0.00,,,0.00,0.00,VWS V14.01,2013-06-07 09:00:00,
2013-06-07 02:04:00,52.2,52.2,29.85,SSW,202,7.8,10.5,100,0.00,,,0.00,0.00,VWS V14.01,2013-06-07 09:04:00,
2013-06-07 02:09:00,52.2,52.2,29.85,SSE,158,8.1,10.5,100,0.00,,,0.00,0.00,VWS V14.01,2013-06-07 09:09:00,
2013-06-07 02:14:00,52.2,52.2,29.85,SSE,158,5.4,10.5,100,0.00,,,0.00,0.00,VWS V14.01,2013-06-07 09:14:00,
2013-06-07 02:15:00,52.2,52.2,29.85,SSE,158,5.4,10.5,100,0.00,,,0.00,0.00,VWS V14.01,2013-06-07 09:15:00,
2013-06-07 02:19:00,52.2,52.2,29.85,South,180,9.6,9.6,100,0.00,,,0.00,0.00,VWS V14.01,2013-06-07 09:19:00,
2013-06-07 02:24:00,52.2,52.2,29.85,SE,135,3.1,13.2,100,0.00,,,0.00,0.00,VWS V14.01,2013-06-07 09:24:00,
2013-06-07 02:29:00,52.2,52.2,29.85,SW,225,4.3,13.2,100,0.00,,,0.00,0.00,VWS V14.01,2013-06-07 09:29:00,
2013-06-07 02:30:00,52.2,52.2,29.85,WSW,248,6.9,13.2,100,0.00,,,0.00,0.00,VWS V14.01,2013-06-07 09:30:00,
2013-06-07 02:34:00,52.2,52.2,29.85,SSW,202,6.5,10.7,100,0.00,,,0.00,0.00,VWS V14.01,2013-06-07 09:34:00,
2013-06-07 02:39:00,52.3,52.3,29.85,SSW,202,7.6,11.0,100,0.00,,,0.00,0.00,VWS V14.01,2013-06-07 09:39:00,
2013-06-07 02:44:00,52.3,52.3,29.85,SSE,158,4.0,11.0,100,0.00,,,0.00,0.00,VWS V14.01,2013-06-07 09:44:00,
2013-06-07 02:45:00,52.3,52.3,29.85,SSE,158,6.0,11.0,100,0.00,,,0.00,0.00,VWS V14.01,2013-06-07 09:45:00,
2013-06-07 02:49:00,52.3,52.3,29.85,SW,225,3.1,9.6,100,0.00,,,0.00,0.00,VWS V14.01,2013-06-07 09:49:00,
2013-06-07 02:54:00,52.3,52.3,29.85,SE,135,6.7,11.0,100,0.00,,,0.00,0.00,VWS V14.01,2013-06-07 09:54:00,
2013-06-07 02:59:00,52.3,52.3,29.85,ESE,112,5.4,11.0,100,0.00,,,0.00,0.00,VWS V14.01,2013-06-07 09:59:00,
2013-06-07 03:00:00,52.3,52.3,29.85,East,90,5.8,11.0,100,0.00,,,0.00,0.00,VWS V14.01,2013-06-07 10:00:00,
2013-06-07 03:04:00,52.3,52.3,29.85,SSW,202,7.4,14.1,100,0.00,,,0.00,0.00,VWS V14.01,2013-06-07 10:04:00,
2013-06-07 03:09:00,52.2,52.2,29.85,SSE,158,7.8,14.1,100,0.00,,,0.00,0.00,VWS V14.01,2013-06-07 10:09:00,
2013-06-07 03:14:00,52.3,52.3,29.85,SW,225,4.0,14.1,100,0.00,,,0.00,0.00,VWS V14.01,2013-06-07 10:14:00,
2013-06-07 03:15:00,52.3,52.3,29.85,SSW,202,7.8,14.1,100,0.00,,,0.00,0.00,VWS V14.01,2013-06-07 10:15:00,
2013-06-07 03:20:00,52.3,52.3,29.85,South,180,6.7,10.5,100,0.00,,,0.00,0.00,VWS V14.01,2013-06-07 10:20:00,
2013-06-07 03:25:00,52.3,52.3,29.85,SSW,202,7.6,10.5,100,0.00,,,0.00,0.00,VWS V14.01,2013-06-07 10:25:00,
2013-06-07 03:30:00,52.3,52.3,29.85,SSW,202,8.7,10.5,100,0.00,,,0.00,0.00,VWS V14.01,2013-06-07 10:30:00,
2013-06-07 03:35:00,52.3,52.3,29.85,South,180,7.6,9.8,100,0.00,,,0.00,0.00,VWS V14.01,2013-06-07 10:35:00,
2013-06-07 03:40:00,52.3,52.3,29.85,West,270,6.7,10.7,100,0.00,,,0.00,0.00,VWS V14.01,2013-06-07 10:40:00,
2013-06-07 03:45:00,52.3,52.3,29.85,SW,225,5.6,10.7,100,0.00,,,0.00,0.00,VWS V14.01,2013-06-07 10:45:00,
2013-06-07 03:50:00,52.3,52.3,29.85,South,180,3.6,10.5,100,0.00,,,0.00,0.00,VWS V14.01,2013-06-07 10:50:00,
2013-06-07 03:55:00,52.3,52.3,29.85,South,180,6.7,10.5,100,0.00,,,0.00,0.00,VWS V14.01,2013-06-07 10:55:00,
2013-06-07 04:00:00,52.3,52.3,29.85,South,180,9.4,10.5,100,0.00,,,0.00,0.00,VWS V14.01,2013-06-07 11:00:00,
2013-06-07 04:05:00,52.3,52.3,29.85,SSE,158,4.7,9.4,100,0.00,,,0.00,0.00,VWS V14.01,2013-06-07 11:05:00,
2013-06-07 04:10:00,52.3,52.3,29.85,SSW,202,8.5,10.3,100,0.00,,,0.00,0.00,VWS V14.01,2013-06-07 11:10:00,
2013-06-07 04:15:00,52.3,52.3,29.85,SW,225,6.3,12.1,100,0.00,,,0.00,0.00,VWS V14.01,2013-06-07 11:15:00,
2013-06-07 04:20:00,52.5,52.5,29.85,South,180,5.8,10.7,100,0.00,,,0.00,0.00,VWS V14.01,2013-06-07 11:20:00,
2013-06-07 04:25:00,52.3,52.3,29.85,South,180,6.3,10.7,100,0.00,,,0.00,0.00,VWS V14.01,2013-06-07 11:25:00,
2013-06-07 04:30:00,52.3,52.3,29.82,SW,225,7.4,7.4,100,0.00,,,0.00,0.00,VWS V14.01,2013-06-07 11:30:00,
2013-06-07 04:35:00,52.3,52.3,29.82,SSW,202,2.2,8.7,100,0.00,,,0.00,0.00,VWS V14.01,2013-06-07 11:35:00,
2013-06-07 04:40:00,52.3,52.3,29.82,WSW,248,7.6,9.4,100,0.00,,,0.00,0.00,VWS V14.01,2013-06-07 11:40:00,
2013-06-07 04:45:00,52.3,52.3,29.85,SW,225,3.6,7.8,100,0.00,,,0.00,0.00,VWS V14.01,2013-06-07 11:45:00,
2013-06-07 04:50:00,52.3,52.3,29.85,South,180,0.9,7.8,100,0.00,,,0.00,0.00,VWS V14.01,2013-06-07 11:50:00,
2013-06-07 04:55:00,52.3,52.3,29.85,WNW,292,2.0,9.4,100,0.00,,,0.00,0.00,VWS V14.01,2013-06-07 11:55:00,
2013-06-07 05:00:00,52.3,52.3,29.82,SSW,202,7.8,7.8,100,0.00,,,0.00,0.00,VWS V14.01,2013-06-07 12:00:00,
2013-06-07 05:05:00,52.3,52.3,29.82,SSW,202,5.6,9.6,100,0.00,,,0.00,0.00,VWS V14.01,2013-06-07 12:05:00,
2013-06-07 05:10:00,52.3,52.3,29.82,SW,225,5.4,9.6,100,0.00,,,0.00,0.00,VWS V14.01,2013-06-07 12:10:00,
2013-06-07 05:15:00,52.3,52.3,29.82,SSW,202,5.8,9.6,100,0.00,,,0.00,0.00,VWS V14.01,2013-06-07 12:15:00,
2013-06-07 05:16:00,52.3,52.3,29.82,NE,45,4.7,8.1,100,0.00,,,0.00,0.00,VWS V14.01,2013-06-07 12:16:00,
2013-06-07 05:21:00,52.3,52.3,29.82,SSE,158,2.0,8.1,100,0.00,,,0.00,0.00,VWS V14.01,2013-06-07 12:21:00,
2013-06-07 05:26:00,52.3,52.3,29.82,SSW,202,4.9,8.1,100,0.00,,,0.00,0.00,VWS V14.01,2013-06-07 12:26:00,
2013-06-07 05:30:00,52.3,52.3,29.82,SE,135,2.2,8.1,100,0.00,,,0.00,0.00,VWS V14.01,2013-06-07 12:30:00,
2013-06-07 05:31:00,52.3,52.3,29.82,SSW,202,5.8,6.3,100,0.00,,,0.00,0.00,VWS V14.01,2013-06-07 12:31:00,
2013-06-07 05:36:00,52.3,52.3,29.82,South,180,6.3,10.5,100,0.00,,,0.00,0.00,VWS V14.01,2013-06-07 12:36:00,
2013-06-07 05:41:00,52.3,52.3,29.82,NW,315,2.7,10.5,100,0.00,,,0.00,0.00,VWS V14.01,2013-06-07 12:41:00,
2013-06-07 05:45:00,52.3,52.3,29.82,South,180,3.8,10.5,100,0.00,,,0.00,0.00,VWS V14.01,2013-06-07 12:45:00,
2013-06-07 05:46:00,52.3,52.3,29.82,South,180,3.1,4.0,100,0.00,,,0.00,0.00,VWS V14.01,2013-06-07 12:46:00,
2013-06-07 05:51:00,52.3,52.3,29.82,SSW,202,2.2,8.5,100,0.00,,,0.00,0.00,VWS V14.01,2013-06-07 12:51:00,
2013-06-07 05:56:00,52.3,52.3,29.82,SW,225,4.3,8.5,100,0.00,,,0.00,0.00,VWS V14.01,2013-06-07 12:56:00,
2013-06-07 06:00:00,52.2,52.2,29.85,East,90,2.0,8.5,100,0.00,,,0.00,0.00,VWS V14.01,2013-06-07 13:00:00,
2013-06-07 06:01:00,52.2,52.2,29.85,South,180,5.8,8.5,100,0.00,,,0.00,0.00,VWS V14.01,2013-06-07 13:01:00,
2013-06-07 06:06:00,52.2,52.2,29.85,SW,225,4.7,9.8,100,0.00,,,0.00,0.00,VWS V14.01,2013-06-07 13:06:00,
2013-06-07 06:11:00,52.2,52.2,29.85,SSE,158,7.6,9.8,100,0.00,,,0.00,0.00,VWS V14.01,2013-06-07 13:11:00,
2013-06-07 06:15:00,52.2,52.2,29.85,SSW,202,7.8,9.8,100,0.00,,,0.00,0.00,VWS V14.01,2013-06-07 13:15:00,
2013-06-07 06:16:00,52.2,52.2,29.85,SW,225,6.3,7.8,100,0.00,,,0.00,0.00,VWS V14.01,2013-06-07 13:16:00,
2013-06-07 06:21:00,52.2,52.2,29.85,SE,135,2.7,7.8,100,0.00,,,0.00,0.00,VWS V14.01,2013-06-07 13:21:00,
2013-06-07 06:27:00,52.2,52.2,29.85,SE,135,3.8,9.0,100,0.00,,,0.00,0.00,VWS V14.01,2013-06-07 13:27:00,
2013-06-07 06:30:00,52.2,52.2,29.85,SE,135,4.0,9.0,100,0.00,,,0.00,0.00,VWS V14.01,2013-06-07 13:30:00,
2013-06-07 06:32:00,52.2,52.2,29.85,WSW,248,1.6,7.6,100,0.00,,,0.00,0.00,VWS V14.01,2013-06-07 13:32:00,
2013-06-07 06:37:00,52.2,52.2,29.85,WSW,248,2.9,8.5,100,0.00,,,0.00,0.00,VWS V14.01,2013-06-07 13:37:00,
2013-06-07 06:42:00,52.2,52.2,29.85,SSE,158,0.0,8.5,100,0.00,,,0.00,0.00,VWS V14.01,2013-06-07 13:42:00,
2013-06-07 06:45:00,52.2,52.2,29.85,NW,315,2.7,8.5,100,0.00,,,0.00,0.00,VWS V14.01,2013-06-07 13:45:00,
2013-06-07 06:47:00,52.2,52.2,29.85,North,0,1.3,4.0,100,0.00,,,0.00,0.00,VWS V14.01,2013-06-07 13:47:00,
2013-06-07 06:53:00,52.3,52.3,29.85,ESE,112,0.0,5.4,100,0.00,,,0.00,0.00,VWS V14.01,2013-06-07 13:53:00,
2013-06-07 06:58:00,52.3,52.3,29.85,SSE,158,0.0,5.4,100,0.00,,,0.00,0.00,VWS V14.01,2013-06-07 13:58:00,
2013-06-07 07:00:00,52.3,52.3,29.85,SE,135,2.5,5.4,100,0.00,,,0.00,0.00,VWS V14.01,2013-06-07 14:00:00,
2013-06-07 07:03:00,52.3,52.3,29.85,South,180,1.6,5.6,100,0.00,,,0.00,0.00,VWS V14.01,2013-06-07 14:03:00,
2013-06-07 07:08:00,52.5,52.5,29.85,SSE,158,1.1,5.6,100,0.00,,,0.00,0.00,VWS V14.01,2013-06-07 14:08:00,
2013-06-07 07:13:00,52.5,52.5,29.85,ESE,112,4.9,6.3,100,0.00,,,0.00,0.00,VWS V14.01,2013-06-07 14:13:00,
2013-06-07 07:15:00,52.5,52.5,29.85,SE,135,5.6,6.3,100,0.00,,,0.00,0.00,VWS V14.01,2013-06-07 14:15:00,
2013-06-07 07:18:00,52.3,52.3,29.85,NW,315,3.4,5.6,100,0.00,,,0.00,0.00,VWS V14.01,2013-06-07 14:18:00,
2013-06-07 07:23:00,52.3,52.3,29.85,SSE,158,3.6,5.6,100,0.00,,,0.00,0.00,VWS V14.01,2013-06-07 14:23:00,
2013-06-07 07:28:00,52.5,52.5,29.85,SW,225,3.4,5.6,100,0.00,,,0.00,0.00,VWS V14.01,2013-06-07 14:28:00,
2013-06-07 07:30:00,52.7,52.7,29.85,North,0,2.5,5.6,100,0.00,,,0.00,0.00,VWS V14.01,2013-06-07 14:30:00,
2013-06-07 07:33:00,52.7,52.7,29.85,SW,225,2.0,4.0,100,0.00,,,0.00,0.00,VWS V14.01,2013-06-07 14:33:00,
2013-06-07 07:38:00,52.7,52.7,29.85,SSE,158,0.0,4.0,100,0.00,,,0.00,0.00,VWS V14.01,2013-06-07 14:38:00,
2013-06-07 07:43:00,52.7,52.7,29.85,SSW,202,2.2,4.0,100,0.00,,,0.00,0.00,VWS V14.01,2013-06-07 14:43:00,
2013-06-07 07:45:00,52.9,52.9,29.85,ESE,112,1.1,4.0,100,0.00,,,0.00,0.00,VWS V14.01,2013-06-07 14:45:00,
2013-06-07 07:48:00,52.7,52.7,29.85,SSE,158,2.5,5.4,100,0.00,,,0.00,0.00,VWS V14.01,2013-06-07 14:48:00,
2013-06-07 07:53:00,52.9,52.9,29.85,SSE,158,4.3,6.0,100,0.00,,,0.00,0.00,VWS V14.01,2013-06-07 14:53:00,
2013-06-07 07:58:00,52.9,52.9,29.85,South,180,5.6,6.0,100,0.00,,,0.00,0.00,VWS V14.01,2013-06-07 14:58:00,
2013-06-07 08:00:00,52.9,52.9,29.85,SE,135,3.6,6.0,100,0.00,,,0.00,0.00,VWS V14.01,2013-06-07 15:00:00,
2013-06-07 08:03:00,53.1,53.1,29.85,SW,225,3.1,4.9,100,0.00,,,0.00,0.00,VWS V14.01,2013-06-07 15:03:00,
2013-06-07 08:08:00,53.1,53.1,29.85,SE,135,3.8,4.9,100,0.00,,,0.00,0.00,VWS V14.01,2013-06-07 15:08:00,
2013-06-07 08:13:00,53.2,53.2,29.85,East,90,2.2,4.9,100,0.00,,,0.00,0.00,VWS V14.01,2013-06-07 15:13:00,
2013-06-07 08:15:00,53.2,53.2,29.85,SSW,202,3.1,4.9,100,0.00,,,0.00,0.00,VWS V14.01,2013-06-07 15:15:00,
2013-06-07 08:18:00,53.2,53.2,29.85,South,180,3.4,7.2,100,0.00,,,0.00,0.00,VWS V14.01,2013-06-07 15:18:00,
2013-06-07 08:24:00,53.4,53.4,29.85,WSW,248,2.9,7.2,100,0.00,,,0.00,0.00,VWS V14.01,2013-06-07 15:24:00,
2013-06-07 08:29:00,53.4,53.4,29.85,SSE,158,1.3,7.2,100,0.00,,,0.00,0.00,VWS V14.01,2013-06-07 15:29:00,
2013-06-07 08:30:00,53.6,53.6,29.85,East,90,0.9,7.2,100,0.00,,,0.00,0.00,VWS V14.01,2013-06-07 15:30:00,
2013-06-07 08:34:00,53.6,53.6,29.85,SSE,158,2.7,3.1,100,0.00,,,0.00,0.00,VWS V14.01,2013-06-07 15:34:00,
2013-06-07 08:39:00,53.6,53.6,29.85,South,180,4.0,4.0,100,0.00,,,0.00,0.00,VWS V14.01,2013-06-07 15:39:00,
2013-06-07 08:44:00,53.8,53.8,29.85,ENE,68,2.9,4.9,100,0.00,,,0.00,0.00,VWS V14.01,2013-06-07 15:44:00,
2013-06-07 08:45:00,53.8,53.8,29.85,WSW,248,2.2,4.9,100,0.00,,,0.00,0.00,VWS V14.01,2013-06-07 15:45:00,
2013-06-07 08:49:00,54.0,54.0,29.85,SSW,202,4.7,6.0,100,0.00,,,0.00,0.00,VWS V14.01,2013-06-07 15:49:00,
2013-06-07 08:54:00,54.1,54.1,29.85,South,180,2.7,6.5,100,0.00,,,0.00,0.00,VWS V14.01,2013-06-07 15:54:00,
2013-06-07 08:59:00,54.1,54.1,29.85,SSE,158,2.7,7.8,100,0.00,,,0.00,0.00,VWS V14.01,2013-06-07 15:59:00,
2013-06-07 09:00:00,54.1,54.1,29.85,SE,135,6.5,7.8,100,0.00,,,0.00,0.00,VWS V14.01,2013-06-07 16:00:00,
2013-06-07 09:04:00,54.3,54.3,29.85,SSE,158,4.0,6.5,100,0.00,,,0.00,0.00,VWS V14.01,2013-06-07 16:04:00,
2013-06-07 09:09:00,54.3,54.3,29.85,East,90,3.4,6.5,100,0.00,,,0.00,0.00,VWS V14.01,2013-06-07 16:09:00,
2013-06-07 09:14:00,54.5,54.5,29.85,South,180,4.3,6.5,100,0.00,,,0.00,0.00,VWS V14.01,2013-06-07 16:14:00,
2013-06-07 09:15:00,54.7,54.7,29.85,SSE,158,3.6,6.5,100,0.00,,,0.00,0.00,VWS V14.01,2013-06-07 16:15:00,
2013-06-07 09:19:00,55.0,55.0,29.85,NE,45,0.0,4.3,100,0.00,,,0.00,0.00,VWS V14.01,2013-06-07 16:19:00,
2013-06-07 09:24:00,55.2,55.2,29.85,SSE,158,3.8,7.4,100,0.00,,,0.00,0.00,VWS V14.01,2013-06-07 16:24:00,
2013-06-07 09:29:00,55.4,55.4,29.85,SSE,158,4.3,7.4,100,0.00,,,0.00,0.00,VWS V14.01,2013-06-07 16:29:00,
2013-06-07 09:30:00,55.4,55.4,29.85,SE,135,1.3,7.4,100,0.00,,,0.00,0.00,VWS V14.01,2013-06-07 16:30:00,
2013-06-07 09:34:00,55.6,55.6,29.85,SW,225,3.1,5.8,100,0.00,,,0.00,0.00,VWS V14.01,2013-06-07 16:34:00,
2013-06-07 09:39:00,55.9,55.9,29.85,SSW,202,4.9,6.0,100,0.00,,,0.00,0.00,VWS V14.01,2013-06-07 16:39:00,
2013-06-07 09:44:00,56.3,56.3,29.85,SSE,158,3.6,6.5,100,0.00,,,0.00,0.00,VWS V14.01,2013-06-07 16:44:00,
2013-06-07 09:45:00,56.3,56.3,29.85,South,180,5.6,6.5,100,0.00,,,0.00,0.00,VWS V14.01,2013-06-07 16:45:00,
2013-06-07 09:49:00,56.7,56.7,29.85,South,180,5.8,8.7,100,0.00,,,0.00,0.00,VWS V14.01,2013-06-07 16:49:00,
2013-06-07 09:55:00,57.4,57.4,29.85,South,180,2.9,8.7,100,0.00,,,0.00,0.00,VWS V14.01,2013-06-07 16:55:00,
2013-06-07 10:00:00,57.9,57.9,29.85,SSW,202,2.0,8.7,100,0.00,,,0.00,0.00,VWS V14.01,2013-06-07 17:00:00,
2013-06-07 10:05:00,58.1,58.1,29.85,SSE,158,4.3,8.1,100,0.00,,,0.00,0.00,VWS V14.01,2013-06-07 17:05:00,
2013-06-07 10:10:00,58.6,58.6,29.85,SSE,158,5.6,8.7,100,0.00,,,0.00,0.00,VWS V14.01,2013-06-07 17:10:00,
2013-06-07 10:15:00,59.0,58.7,29.82,WSW,248,4.3,9.8,99,0.00,,,0.00,0.00,VWS V14.01,2013-06-07 17:15:00,
2013-06-07 10:20:00,59.5,59.3,29.82,SSW,202,2.2,7.8,99,0.00,,,0.00,0.00,VWS V14.01,2013-06-07 17:20:00,
2013-06-07 10:25:00,60.1,59.5,29.82,SSW,202,5.4,7.8,98,0.00,,,0.00,0.00,VWS V14.01,2013-06-07 17:25:00,
2013-06-07 10:30:00,61.0,60.4,29.85,SE,135,0.0,0.0,98,0.00,,,0.00,0.00,VWS V14.01,2013-06-07 17:30:00,
2013-06-07 10:35:00,62.2,60.2,29.85,ENE,68,3.4,4.9,93,0.00,,,0.00,0.00,VWS V14.01,2013-06-07 17:35:00,
2013-06-07 10:40:00,62.1,59.7,29.85,ESE,112,0.0,5.4,92,0.00,,,0.00,0.00,VWS V14.01,2013-06-07 17:40:00,
2013-06-07 10:45:00,63.1,60.2,29.85,East,90,0.0,3.8,90,0.00,,,0.00,0.00,VWS V14.01,2013-06-07 17:45:00,
2013-06-07 10:50:00,63.1,59.2,29.85,NNE,22,2.7,4.0,87,0.00,,,0.00,0.00,VWS V14.01,2013-06-07 17:50:00,
2013-06-07 10:56:00,63.3,59.7,29.85,NE,45,1.3,4.0,88,0.00,,,0.00,0.00,VWS V14.01,2013-06-07 17:56:00,
2013-06-07 11:00:00,63.3,59.4,29.85,North,0,0.0,4.3,87,0.00,,,0.00,0.00,VWS V14.01,2013-06-07 18:00:00,
2013-06-07 11:01:00,63.5,59.6,29.85,NNW,338,1.3,4.0,87,0.00,,,0.00,0.00,VWS V14.01,2013-06-07 18:01:00,
2013-06-07 11:07:00,64.0,59.8,29.85,NNE,22,4.0,5.6,86,0.00,,,0.00,0.00,VWS V14.01,2013-06-07 18:07:00,
2013-06-07 11:12:00,65.7,60.4,29.85,East,90,3.4,5.6,83,0.00,,,0.00,0.00,VWS V14.01,2013-06-07 18:12:00,
2013-06-07 11:15:00,64.9,59.3,29.85,NNW,338,4.3,6.5,82,0.00,,,0.00,0.00,VWS V14.01,2013-06-07 18:15:00,
2013-06-07 11:18:00,65.5,60.2,29.85,East,90,3.1,4.3,83,0.00,,,0.00,0.00,VWS V14.01,2013-06-07 18:18:00,
2013-06-07 11:24:00,65.3,59.7,29.85,East,90,2.5,6.3,82,0.00,,,0.00,0.00,VWS V14.01,2013-06-07 18:24:00,
2013-06-07 11:29:00,66.4,60.7,29.85,South,180,1.3,6.3,82,0.00,,,0.00,0.00,VWS V14.01,2013-06-07 18:29:00,
2013-06-07 11:30:00,66.6,61.2,29.85,SE,135,0.0,6.3,83,0.00,,,0.00,0.00,VWS V14.01,2013-06-07 18:30:00,
2013-06-07 11:34:00,66.7,61.1,29.85,East,90,0.0,8.1,82,0.00,,,0.00,0.00,VWS V14.01,2013-06-07 18:34:00,
2013-06-07 11:39:00,67.3,60.5,29.85,SE,135,0.0,8.1,79,0.00,,,0.00,0.00,VWS V14.01,2013-06-07 18:39:00,
2013-06-07 11:44:00,67.1,60.0,29.85,NE,45,4.9,8.1,78,0.00,,,0.00,0.00,VWS V14.01,2013-06-07 18:44:00,
2013-06-07 11:45:00,66.4,59.0,29.85,NE,45,3.6,8.1,77,0.00,,,0.00,0.00,VWS V14.01,2013-06-07 18:45:00,
2013-06-07 11:50:00,67.5,60.0,29.85,NE,45,5.4,5.4,77,0.00,,,0.00,0.00,VWS V14.01,2013-06-07 18:50:00,
2013-06-07 11:55:00,68.4,61.2,29.85,East,90,0.0,5.6,78,0.00,,,0.00,0.00,VWS V14.01,2013-06-07 18:55:00,
2013-06-07 12:00:00,68.4,60.5,29.85,SE,135,7.8,7.8,76,0.00,,,0.00,0.00,VWS V14.01,2013-06-07 19:00:00,
2013-06-07 12:06:00,67.8,60.0,29.85,SSE,158,8.5,11.4,76,0.00,,,0.00,0.00,VWS V14.01,2013-06-07 19:06:00,
2013-06-07 12:11:00,67.1,59.7,29.85,SSE,158,8.5,11.4,77,0.00,,,0.00,0.00,VWS V14.01,2013-06-07 19:11:00,
2013-06-07 12:15:00,67.8,60.7,29.85,South,180,4.3,11.4,78,0.00,,,0.00,0.00,VWS V14.01,2013-06-07 19:15:00,
2013-06-07 12:20:00,69.1,61.2,29.85,NE,45,4.9,8.1,76,0.00,,,0.00,0.00,VWS V14.01,2013-06-07 19:20:00,
2013-06-07 12:28:00,68.5,60.3,29.85,NE,45,5.6,8.1,75,0.00,,,0.00,0.00,VWS V14.01,2013-06-07 19:28:00,
2013-06-07 12:30:00,68.0,59.8,29.85,North,0,4.0,8.1,75,0.00,,,0.00,0.00,VWS V14.01,2013-06-07 19:30:00,
2013-06-07 12:33:00,69.8,61.2,29.85,North,0,0.0,4.0,74,0.00,,,0.00,0.00,VWS V14.01,2013-06-07 19:33:00,
2013-06-07 12:38:00,69.6,60.6,29.85,ENE,68,3.4,5.4,73,0.00,,,0.00,0.00,VWS V14.01,2013-06-07 19:38:00,
2013-06-07 12:43:00,69.6,60.6,29.85,SE,135,4.0,7.2,73,0.00,,,0.00,0.00,VWS V14.01,2013-06-07 19:43:00,
2013-06-07 12:45:00,70.0,60.9,29.85,SSE,158,8.1,8.5,73,0.00,,,0.00,0.00,VWS V14.01,2013-06-07 19:45:00,
2013-06-07 12:49:00,69.6,60.2,29.85,South,180,4.9,9.4,72,0.00,,,0.00,0.00,VWS V14.01,2013-06-07 19:49:00,
2013-06-07 12:54:00,69.8,60.4,29.85,SSE,158,6.0,9.4,72,0.00,,,0.00,0.00,VWS V14.01,2013-06-07 19:54:00,
2013-06-07 12:59:00,69.4,60.4,29.82,SE,135,6.5,10.5,73,0.00,,,0.00,0.00,VWS V14.01,2013-06-07 19:59:00,
2013-06-07 13:00:00,69.4,60.4,29.82,SE,135,6.3,10.5,73,0.00,,,0.00,0.00,VWS V14.01,2013-06-07 20:00:00,
2013-06-07 13:05:00,69.6,60.6,29.82,South,180,5.6,8.7,73,0.00,,,0.00,0.00,VWS V14.01,2013-06-07 20:05:00,
2013-06-07 13:10:00,70.0,60.5,29.82,South,180,3.6,9.6,72,0.00,,,0.00,0.00,VWS V14.01,2013-06-07 20:10:00,
2013-06-07 13:15:00,70.2,60.7,29.82,South,180,9.6,9.6,72,0.00,,,0.00,0.00,VWS V14.01,2013-06-07 20:15:00,
2013-06-07 13:22:00,70.3,60.5,29.82,SSW,202,5.8,9.6,71,0.00,,,0.00,0.00,VWS V14.01,2013-06-07 20:22:00,
2013-06-07 13:27:00,70.5,60.7,29.82,SE,135,3.8,10.3,71,0.00,,,0.00,0.00,VWS V14.01,2013-06-07 20:27:00,
2013-06-07 13:30:00,70.3,60.5,29.82,SSW,202,5.6,10.3,71,0.00,,,0.00,0.00,VWS V14.01,2013-06-07 20:30:00,
2013-06-07 13:32:00,70.3,60.5,29.82,SSW,202,3.6,8.1,71,0.00,,,0.00,0.00,VWS V14.01,2013-06-07 20:32:00,
2013-06-07 13:37:00,70.5,60.7,29.82,SW,225,6.3,8.1,71,0.00,,,0.00,0.00,VWS V14.01,2013-06-07 20:37:00,
2013-06-07 13:42:00,70.9,61.0,29.82,South,180,7.4,9.8,71,0.00,,,0.00,0.00,VWS V14.01,2013-06-07 20:42:00,
2013-06-07 13:45:00,70.9,61.0,29.82,SSE,158,0.0,9.8,71,0.00,,,0.00,0.00,VWS V14.01,2013-06-07 20:45:00,
2013-06-07 13:47:00,70.9,60.6,29.82,South,180,7.4,8.1,70,0.00,,,0.00,0.00,VWS V14.01,2013-06-07 20:47:00,
2013-06-07 13:52:00,70.5,60.7,29.82,SSE,158,3.4,10.5,71,0.00,,,0.00,0.00,VWS V14.01,2013-06-07 20:52:00,
2013-06-07 13:58:00,71.1,61.2,29.82,South,180,7.6,11.0,71,0.00,,,0.00,0.00,VWS V14.01,2013-06-07 20:58:00,
2013-06-07 14:00:00,70.9,60.6,29.82,SSE,158,6.0,12.3,70,0.00,,,0.00,0.00,VWS V14.01,2013-06-07 21:00:00,
2013-06-07 14:03:00,70.9,60.6,29.82,SSE,158,5.4,9.8,70,0.00,,,0.00,0.00,VWS V14.01,2013-06-07 21:03:00,
2013-06-07 14:10:00,70.7,60.5,29.82,South,180,6.0,14.5,70,0.00,,,0.00,0.00,VWS V14.01,2013-06-07 21:10:00,
2013-06-07 14:15:00,70.2,60.3,29.82,SSW,202,7.8,14.5,71,0.00,,,0.00,0.00,VWS V14.01,2013-06-07 21:15:00,
2013-06-07 14:20:00,70.0,60.2,29.82,SSE,158,6.3,14.1,71,0.00,,,0.00,0.00,VWS V14.01,2013-06-07 21:20:00,
2013-06-07 14:25:00,69.4,60.0,29.82,SSE,158,6.3,14.8,72,0.00,,,0.00,0.00,VWS V14.01,2013-06-07 21:25:00,
2013-06-07 14:30:00,69.6,60.6,29.82,WSW,248,5.4,14.8,73,0.00,,,0.00,0.00,VWS V14.01,2013-06-07 21:30:00,
2013-06-07 14:31:00,69.8,60.8,29.82,SSW,202,6.5,9.8,73,0.00,,,0.00,0.00,VWS V14.01,2013-06-07 21:31:00,
2013-06-07 14:36:00,69.6,60.6,29.82,SSW,202,6.5,15.4,73,0.00,,,0.00,0.00,VWS V14.01,2013-06-07 21:36:00,
2013-06-07 14:42:00,69.6,60.6,29.82,SSW,202,3.1,15.4,73,0.00,,,0.00,0.00,VWS V14.01,2013-06-07 21:42:00,
2013-06-07 14:45:00,69.6,60.6,29.79,SSE,158,10.3,15.4,73,0.00,,,0.00,0.00,VWS V14.01,2013-06-07 21:45:00,
2013-06-07 14:48:00,69.3,60.2,29.79,SSW,202,12.3,12.5,73,0.00,,,0.00,0.00,VWS V14.01,2013-06-07 21:48:00,
2013-06-07 14:53:00,69.6,60.6,29.79,South,180,8.5,12.5,73,0.00,,,0.00,0.00,VWS V14.01,2013-06-07 21:53:00,
2013-06-07 15:00:00,69.3,60.6,29.79,SW,225,5.6,14.5,74,0.00,,,0.00,0.00,VWS V14.01,2013-06-07 22:00:00,
2013-06-07 15:06:00,69.4,60.8,29.79,WNW,292,2.9,13.0,74,0.00,,,0.00,0.00,VWS V14.01,2013-06-07 22:06:00,
2013-06-07 15:12:00,70.2,61.1,29.79,South,180,10.5,16.3,73,0.00,,,0.00,0.00,VWS V14.01,2013-06-07 22:12:00,
2013-06-07 15:15:00,70.2,61.1,29.79,SSE,158,13.4,16.3,73,0.00,,,0.00,0.00,VWS V14.01,2013-06-07 22:15:00,
2013-06-07 15:19:00,70.3,61.3,29.79,SSW,202,8.7,15.4,73,0.00,,,0.00,0.00,VWS V14.01,2013-06-07 22:19:00,
2013-06-07 15:24:00,70.0,60.9,29.79,SSW,202,10.3,16.1,73,0.00,,,0.00,0.00,VWS V14.01,2013-06-07 22:24:00,
2013-06-07 15:29:00,70.0,61.3,29.79,SW,225,10.1,16.1,74,0.00,,,0.00,0.00,VWS V14.01,2013-06-07 22:29:00,
2013-06-07 15:30:00,70.0,61.3,29.79,WSW,248,10.5,16.1,74,0.00,,,0.00,0.00,VWS V14.01,2013-06-07 22:30:00,
2013-06-07 15:34:00,69.6,61.0,29.79,SSW,202,13.9,17.9,74,0.00,,,0.00,0.00,VWS V14.01,2013-06-07 22:34:00,
2013-06-07 15:39:00,69.3,61.0,29.79,SSW,202,13.2,19.2,75,0.00,,,0.00,0.00,VWS V14.01,2013-06-07 22:39:00,
2013-06-07 15:45:00,69.3,61.0,29.79,SSW,202,10.3,22.4,75,0.00,,,0.00,0.00,VWS V14.01,2013-06-07 22:45:00,
2013-06-07 15:51:00,70.0,60.9,29.79,South,180,13.9,19.5,73,0.00,,,0.00,0.00,VWS V14.01,2013-06-07 22:51:00,
2013-06-07 15:56:00,69.8,60.4,29.79,SSW,202,16.8,22.2,72,0.00,,,0.00,0.00,VWS V14.01,2013-06-07 22:56:00,
2013-06-07 16:00:00,69.3,60.2,29.79,SSE,158,12.1,22.6,73,0.00,,,0.00,0.00,VWS V14.01,2013-06-07 23:00:00,
2013-06-07 16:01:00,69.1,60.5,29.79,SSE,158,6.3,19.5,74,0.00,,,0.00,0.00,VWS V14.01,2013-06-07 23:01:00,
2013-06-07 16:08:00,68.9,60.7,29.79,SSW,202,6.0,19.5,75,0.00,,,0.00,0.00,VWS V14.01,2013-06-07 23:08:00,
2013-06-07 16:13:00,69.3,61.0,29.79,SSW,202,10.1,19.7,75,0.00,,,0.00,0.00,VWS V14.01,2013-06-07 23:13:00,
2013-06-07 16:15:00,69.3,60.6,29.79,SSW,202,11.0,19.7,74,0.00,,,0.00,0.00,VWS V14.01,2013-06-07 23:15:00,
2013-06-07 16:19:00,68.9,60.3,29.79,SW,225,14.1,16.3,74,0.00,,,0.00,0.00,VWS V14.01,2013-06-07 23:19:00,
2013-06-07 16:24:00,68.9,59.9,29.79,SSW,202,9.6,19.7,73,0.00,,,0.00,0.00,VWS V14.01,2013-06-07 23:24:00,
2013-06-07 16:29:00,69.4,60.4,29.76,SW,225,8.1,19.7,73,0.00,,,0.00,0.00,VWS V14.01,2013-06-07 23:29:00,
2013-06-07 16:30:00,70.0,60.5,29.76,SSW,202,16.1,19.7,72,0.00,,,0.00,0.00,VWS V14.01,2013-06-07 23:30:00,
2013-06-07 16:35:00,69.8,60.0,29.76,South,180,22.6,22.6,71,0.00,,,0.00,0.00,VWS V14.01,2013-06-07 23:35:00,
2013-06-07 16:40:00,68.7,59.3,29.76,SSW,202,13.2,22.6,72,0.00,,,0.00,0.00,VWS V14.01,2013-06-07 23:40:00,
2013-06-07 16:45:00,68.7,59.3,29.76,SW,225,14.5,22.6,72,0.00,,,0.00,0.00,VWS V14.01,2013-06-07 23:45:00,
2013-06-07 16:47:00,69.3,59.9,29.76,SE,135,10.5,18.6,72,0.00,,,0.00,0.00,VWS V14.01,2013-06-07 23:47:00,
2013-06-07 16:53:00,70.5,60.3,29.76,SSE,158,8.5,21.3,70,0.00,,,0.00,0.00,VWS V14.01,2013-06-07 23:53:00,
2013-06-07 16:58:00,70.7,60.0,29.79,WSW,248,18.6,21.9,69,0.00,,,0.00,0.00,VWS V14.01,2013-06-07 23:58:00,
2013-06-07 17:00:00,70.5,60.3,29.79,SSW,202,19.9,21.9,70,0.00,,,0.00,0.00,VWS V14.01,2013-06-08 00:00:00,
2013-06-07 17:03:00,69.3,59.5,29.79,South,180,11.0,19.9,71,0.00,,,0.00,0.00,VWS V14.01,2013-06-08 00:03:00,
2013-06-07 17:09:00,68.0,59.0,29.79,South,180,17.5,22.4,73,0.00,,,0.00,0.00,VWS V14.01,2013-06-08 00:09:00,
2013-06-07 17:14:00,67.5,58.9,29.76,SSW,202,16.8,23.0,74,0.00,,,0.00,0.00,VWS V14.01,2013-06-08 00:14:00,
2013-06-07 17:15:00,67.3,58.7,29.76,South,180,12.3,23.0,74,0.00,,,0.00,0.00,VWS V14.01,2013-06-08 00:15:00,
2013-06-07 17:19:00,66.9,58.8,29.76,SSW,202,6.3,20.1,75,0.00,,,0.00,0.00,VWS V14.01,2013-06-08 00:19:00,
2013-06-07 17:24:00,67.5,58.9,29.76,SSE,158,15.2,20.6,74,0.00,,,0.00,0.00,VWS V14.01,2013-06-08 00:24:00,
2013-06-07 17:30:00,67.3,59.1,29.76,South,180,11.9,21.3,75,0.00,,,0.00,0.00,VWS V14.01,2013-06-08 00:30:00,
2013-06-07 17:35:00,68.0,59.4,29.76,South,180,16.8,21.9,74,0.00,,,0.00,0.00,VWS V14.01,2013-06-08 00:35:00,
2013-06-07 17:40:00,67.5,58.9,29.76,South,180,9.2,22.8,74,0.00,,,0.00,0.00,VWS V14.01,2013-06-08 00:40:00,
2013-06-07 17:45:00,67.1,58.9,29.76,South,180,8.5,22.8,75,0.00,,,0.00,0.00,VWS V14.01,2013-06-08 00:45:00,
2013-06-07 17:46:00,66.9,58.8,29.76,SSW,202,12.8,13.4,75,0.00,,,0.00,0.00,VWS V14.01,2013-06-08 00:46:00,
2013-06-07 17:51:00,65.7,58.6,29.76,SSW,202,11.9,22.2,78,0.00,,,0.00,0.00,VWS V14.01,2013-06-08 00:51:00,
2013-06-07 17:57:00,65.1,58.5,29.76,SW,225,4.0,22.2,79,0.00,,,0.00,0.00,VWS V14.01,2013-06-08 00:57:00,
2013-06-07 18:00:00,64.9,58.3,29.79,SW,225,17.5,22.2,79,0.00,,,0.00,0.00,VWS V14.01,2013-06-08 01:00:00,
2013-06-07 18:03:00,64.8,58.5,29.79,South,180,5.6,19.5,80,0.00,,,0.00,0.00,VWS V14.01,2013-06-08 01:03:00,
2013-06-07 18:08:00,64.8,58.5,29.79,SW,225,10.7,19.5,80,0.00,,,0.00,0.00,VWS V14.01,2013-06-08 01:08:00,
2013-06-07 18:14:00,64.4,57.8,29.79,WNW,292,6.9,22.2,79,0.00,,,0.00,0.00,VWS V14.01,2013-06-08 01:14:00,
2013-06-07 18:15:00,64.4,57.8,29.79,SSW,202,5.4,22.2,79,0.00,,,0.00,0.00,VWS V14.01,2013-06-08 01:15:00,
2013-06-07 18:20:00,64.2,57.9,29.79,SW,225,8.7,19.7,80,0.00,,,0.00,0.00,VWS V14.01,2013-06-08 01:20:00,
2013-06-07 18:25:00,64.9,57.9,29.79,SE,135,9.8,19.7,78,0.00,,,0.00,0.00,VWS V14.01,2013-06-08 01:25:00,
2013-06-07 18:30:00,64.2,57.9,29.79,South,180,6.0,19.7,80,0.00,,,0.00,0.00,VWS V14.01,2013-06-08 01:30:00,
2013-06-07 18:36:00,65.1,58.5,29.79,WSW,248,7.4,13.4,79,0.00,,,0.00,0.00,VWS V14.01,2013-06-08 01:36:00,
2013-06-07 18:41:00,65.1,58.1,29.79,SSW,202,12.1,14.3,78,0.00,,,0.00,0.00,VWS V14.01,2013-06-08 01:41:00,
2013-06-07 18:45:00,65.5,58.8,29.76,SSW,202,12.8,14.3,79,0.00,,,0.00,0.00,VWS V14.01,2013-06-08 01:45:00,
2013-06-07 18:46:00,65.5,58.5,29.76,South,180,9.8,14.8,78,0.00,,,0.00,0.00,VWS V14.01,2013-06-08 01:46:00,
2013-06-07 18:54:00,64.8,58.1,29.76,SSW,202,13.0,15.4,79,0.00,,,0.00,0.00,VWS V14.01,2013-06-08 01:54:00,
2013-06-07 19:00:00,64.2,58.3,29.76,South,180,10.1,19.5,81,0.00,,,0.00,0.00,VWS V14.01,2013-06-08 02:00:00,
2013-06-07 19:05:00,63.3,58.1,29.76,SSW,202,9.8,22.2,83,0.00,,,0.00,0.00,VWS V14.01,2013-06-08 02:05:00,
2013-06-07 19:10:00,63.5,58.6,29.76,SW,225,12.8,22.2,84,0.00,,,0.00,0.00,VWS V14.01,2013-06-08 02:10:00,
2013-06-07 19:15:00,63.5,58.2,29.76,SSW,202,10.5,22.2,83,0.00,,,0.00,0.00,VWS V14.01,2013-06-08 02:15:00,
2013-06-07 19:21:00,64.2,58.6,29.76,SSW,202,10.5,13.2,82,0.00,,,0.00,0.00,VWS V14.01,2013-06-08 02:21:00,
2013-06-07 19:26:00,64.2,58.3,29.76,SSW,202,9.6,13.2,81,0.00,,,0.00,0.00,VWS V14.01,2013-06-08 02:26:00,
2013-06-07 19:30:00,63.5,57.9,29.76,SSW,202,6.3,17.9,82,0.00,,,0.00,0.00,VWS V14.01,2013-06-08 02:30:00,
2013-06-07 19:31:00,63.3,58.1,29.76,South,180,7.6,13.2,83,0.00,,,0.00,0.00,VWS V14.01,2013-06-08 02:31:00,
2013-06-07 19:37:00,63.0,58.1,29.76,SSW,202,9.8,13.4,84,0.00,,,0.00,0.00,VWS V14.01,2013-06-08 02:37:00,
2013-06-07 19:43:00,62.4,57.9,29.76,SSE,158,11.9,15.4,85,0.00,,,0.00,0.00,VWS V14.01,2013-06-08 02:43:00,
2013-06-07 19:45:00,62.4,58.2,29.76,SSW,202,8.7,15.7,86,0.00,,,0.00,0.00,VWS V14.01,2013-06-08 02:45:00,
2013-06-07 19:48:00,62.4,58.2,29.76,SSW,202,8.7,13.0,86,0.00,,,0.00,0.00,VWS V14.01,2013-06-08 02:48:00,
2013-06-07 19:53:00,62.1,58.2,29.76,South,180,6.3,16.6,87,0.00,,,0.00,0.00,VWS V14.01,2013-06-08 02:53:00,
2013-06-07 19:59:00,61.7,57.5,29.76,South,180,3.8,16.6,86,0.00,,,0.00,0.00,VWS V14.01,2013-06-08 02:59:00,
2013-06-07 20:00:00,61.7,57.5,29.76,SSW,202,11.0,16.6,86,0.00,,,0.00,0.00,VWS V14.01,2013-06-08 03:00:00,
2013-06-07 20:04:00,61.5,57.3,29.76,SSW,202,4.0,11.0,86,0.00,,,0.00,0.00,VWS V14.01,2013-06-08 03:04:00,
2013-06-07 20:09:00,61.0,56.8,29.76,SSW,202,4.9,12.8,86,0.00,,,0.00,0.00,VWS V14.01,2013-06-08 03:09:00,
2013-06-07 20:15:00,60.4,56.6,29.74,SSW,202,3.4,12.8,87,0.00,,,0.00,0.00,VWS V14.01,2013-06-08 03:15:00,
2013-06-07 20:23:00,60.4,57.5,29.74,SSE,158,7.8,12.8,90,0.00,,,0.00,0.00,VWS V14.01,2013-06-08 03:23:00,
2013-06-07 20:30:00,60.3,57.6,29.76,SSE,158,3.4,12.8,91,0.00,,,0.00,0.00,VWS V14.01,2013-06-08 03:30:00,
2013-06-07 20:35:00,60.4,58.4,29.76,SSW,202,4.9,10.5,93,0.00,,,0.00,0.00,VWS V14.01,2013-06-08 03:35:00,
2013-06-07 20:40:00,60.4,58.4,29.76,SSW,202,6.0,13.0,93,0.00,,,0.00,0.00,VWS V14.01,2013-06-08 03:40:00,
2013-06-07 20:45:00,60.1,57.5,29.74,South,180,10.7,10.7,91,0.00,,,0.00,0.00,VWS V14.01,2013-06-08 03:45:00,
2013-06-07 20:50:00,58.8,56.8,29.74,SW,225,8.1,11.0,93,0.00,,,0.00,0.00,VWS V14.01,2013-06-08 03:50:00,
2013-06-07 20:55:00,58.5,56.7,29.74,SSW,202,5.4,11.0,94,0.00,,,0.00,0.00,VWS V14.01,2013-06-08 03:55:00,
2013-06-07 21:00:00,58.5,57.0,29.74,SSW,202,8.1,11.0,95,0.00,,,0.00,0.00,VWS V14.01,2013-06-08 04:00:00,
2013-06-07 21:02:00,58.5,57.0,29.74,SSW,202,4.9,8.1,95,0.00,,,0.00,0.00,VWS V14.01,2013-06-08 04:02:00,
2013-06-07 21:04:00,58.5,57.0,29.74,South,180,3.8,8.1,95,0.00,,,0.00,0.00,VWS V14.01,2013-06-08 04:04:00,
2013-06-07 21:07:00,58.5,56.7,29.74,SSE,158,4.0,8.1,94,0.00,,,0.00,0.00,VWS V14.01,2013-06-08 04:07:00,
2013-06-07 21:11:00,58.5,56.7,29.74,South,180,4.0,9.6,94,0.00,,,0.00,0.00,VWS V14.01,2013-06-08 04:11:00,
2013-06-07 21:12:00,58.5,57.0,29.74,SSE,158,3.6,9.6,95,0.00,,,0.00,0.00,VWS V14.01,2013-06-08 04:12:00,
2013-06-07 21:15:00,58.6,57.2,29.74,South,180,2.7,9.6,95,0.00,,,0.00,0.00,VWS V14.01,2013-06-08 04:15:00,
2013-06-07 21:17:00,58.6,57.2,29.74,SSW,202,3.6,8.5,95,0.00,,,0.00,0.00,VWS V14.01,2013-06-08 04:17:00,
2013-06-07 21:22:00,59.0,57.0,29.74,SSW,202,1.3,8.5,93,0.00,,,0.00,0.00,VWS V14.01,2013-06-08 04:22:00,
2013-06-07 21:27:00,59.0,57.0,29.74,South,180,2.5,8.5,93,0.00,,,0.00,0.00,VWS V14.01,2013-06-08 04:27:00,
2013-06-07 21:30:00,59.2,57.2,29.76,South,180,1.3,8.5,93,0.00,,,0.00,0.00,VWS V14.01,2013-06-08 04:30:00,
2013-06-07 21:32:00,59.2,57.2,29.76,SSW,202,2.5,8.7,93,0.00,,,0.00,0.00,VWS V14.01,2013-06-08 04:32:00,
2013-06-07 21:37:00,59.9,57.6,29.76,SSW,202,10.7,10.7,92,0.00,,,0.00,0.00,VWS V14.01,2013-06-08 04:37:00,
2013-06-07 21:42:00,60.4,57.5,29.76,SSW,202,4.0,10.7,90,0.00,,,0.00,0.00,VWS V14.01,2013-06-08 04:42:00,
2013-06-07 21:45:00,60.4,57.5,29.76,SW,225,2.5,10.7,90,0.00,,,0.00,0.00,VWS V14.01,2013-06-08 04:45:00,
2013-06-07 21:47:00,60.4,57.5,29.76,ESE,112,3.4,5.6,90,0.00,,,0.00,0.00,VWS V14.01,2013-06-08 04:47:00,
2013-06-07 21:52:00,60.6,57.4,29.76,WSW,248,0.0,5.6,89,0.00,,,0.00,0.00,VWS V14.01,2013-06-08 04:52:00,
2013-06-07 21:57:00,60.6,57.7,29.76,ESE,112,2.5,5.6,90,0.00,,,0.00,0.00,VWS V14.01,2013-06-08 04:57:00,
2013-06-07 22:00:00,60.4,57.5,29.76,SSW,202,0.0,5.6,90,0.00,,,0.00,0.00,VWS V14.01,2013-06-08 05:00:00,
2013-06-07 22:02:00,60.4,57.5,29.76,East,90,0.0,2.5,90,0.00,,,0.00,0.00,VWS V14.01,2013-06-08 05:02:00,
2013-06-07 22:07:00,60.3,57.6,29.76,South,180,0.0,2.5,91,0.00,,,0.00,0.00,VWS V14.01,2013-06-08 05:07:00,
2013-06-07 22:12:00,59.9,57.3,29.76,North,0,0.0,2.5,91,0.00,,,0.00,0.00,VWS V14.01,2013-06-08 05:12:00,
2013-06-07 22:15:00,59.7,57.1,29.76,SSW,202,0.0,2.5,91,0.00,,,0.00,0.00,VWS V14.01,2013-06-08 05:15:00,
2013-06-07 22:17:00,59.5,57.2,29.76,SSW,202,0.0,0.0,92,0.00,,,0.00,0.00,VWS V14.01,2013-06-08 05:17:00,
2013-06-07 22:22:00,59.4,57.3,29.76,SSW,202,0.0,0.0,93,0.00,,,0.00,0.00,VWS V14.01,2013-06-08 05:22:00,
2013-06-07 22:27:00,59.4,57.3,29.76,SSW,202,0.0,9.6,93,0.00,,,0.00,0.00,VWS V14.01,2013-06-08 05:27:00,
2013-06-07 22:30:00,59.4,57.3,29.76,SSW,202,0.0,9.6,93,0.00,,,0.00,0.00,VWS V14.01,2013-06-08 05:30:00,
2013-06-07 22:32:00,59.4,57.3,29.76,South,180,0.0,1.3,93,0.00,,,0.00,0.00,VWS V14.01,2013-06-08 05:32:00,
2013-06-07 22:37:00,59.4,57.0,29.76,South,180,6.5,7.6,92,0.00,,,0.00,0.00,VWS V14.01,2013-06-08 05:37:00,
2013-06-07 22:43:00,59.2,56.9,29.76,SSE,158,5.4,11.9,92,0.00,,,0.00,0.00,VWS V14.01,2013-06-08 05:43:00,
2013-06-07 22:45:00,59.0,56.7,29.76,SSW,202,10.1,11.9,92,0.00,,,0.00,0.00,VWS V14.01,2013-06-08 05:45:00,
2013-06-07 22:48:00,58.8,56.8,29.76,SSE,158,5.6,10.1,93,0.00,,,0.00,0.00,VWS V14.01,2013-06-08 05:48:00,
2013-06-07 22:53:00,59.2,57.2,29.76,SSW,202,8.5,13.0,93,0.00,,,0.00,0.00,VWS V14.01,2013-06-08 05:53:00,
2013-06-07 22:58:00,59.5,57.2,29.76,SE,135,4.3,13.0,92,0.00,,,0.00,0.00,VWS V14.01,2013-06-08 05:58:00,
2013-06-07 23:00:00,59.4,57.0,29.76,South,180,4.3,13.0,92,0.00,,,0.00,0.00,VWS V14.01,2013-06-08 06:00:00,
2013-06-07 23:03:00,59.5,57.2,29.76,SSE,158,6.0,8.5,92,0.00,,,0.00,0.00,VWS V14.01,2013-06-08 06:03:00,
2013-06-07 23:09:00,59.5,56.9,29.76,South,180,8.7,9.8,91,0.00,,,0.00,0.00,VWS V14.01,2013-06-08 06:09:00,
2013-06-07 23:14:00,59.4,57.0,29.76,SSW,202,6.5,10.7,92,0.00,,,0.00,0.00,VWS V14.01,2013-06-08 06:14:00,
2013-06-07 23:15:00,59.4,57.0,29.76,SE,135,3.1,10.7,92,0.00,,,0.00,0.00,VWS V14.01,2013-06-08 06:15:00,
2013-06-07 23:19:00,59.7,57.4,29.76,SSW,202,5.8,11.0,92,0.00,,,0.00,0.00,VWS V14.01,2013-06-08 06:19:00,
2013-06-07 23:24:00,59.7,57.1,29.76,South,180,7.8,11.0,91,0.00,,,0.00,0.00,VWS V14.01,2013-06-08 06:24:00,
2013-06-07 23:29:00,59.7,57.1,29.79,SSE,158,3.4,11.0,91,0.00,,,0.00,0.00,VWS V14.01,2013-06-08 06:29:00,
2013-06-07 23:30:00,59.7,57.1,29.79,WSW,248,2.5,11.0,91,0.00,,,0.00,0.00,VWS V14.01,2013-06-08 06:30:00,
2013-06-07 23:34:00,59.7,57.1,29.79,SE,135,0.9,10.7,91,0.00,,,0.00,0.00,VWS V14.01,2013-06-08 06:34:00,
2013-06-07 23:39:00,59.5,57.5,29.79,South,180,5.4,10.7,93,0.00,,,0.00,0.00,VWS V14.01,2013-06-08 06:39:00,
2013-06-07 23:44:00,60.1,57.5,29.76,SSE,158,4.0,10.7,91,0.00,,,0.00,0.00,VWS V14.01,2013-06-08 06:44:00,
2013-06-07 23:45:00,60.1,57.1,29.76,SSE,158,3.8,10.7,90,0.00,,,0.00,0.00,VWS V14.01,2013-06-08 06:45:00,
2013-06-07 23:49:00,59.5,56.9,29.76,NNW,338,0.9,3.8,91,0.00,,,0.00,0.00,VWS V14.01,2013-06-08 06:49:00,
2013-06-07 23:54:00,59.4,57.0,29.76,North,0,0.0,3.8,92,0.00,,,0.00,0.00,VWS V14.01,2013-06-08 06:54:00,
2013-06-07 23:59:00,59.0,56.7,29.76,South,180,0.0,3.8,92,0.00,,,0.00,0.00,VWS V14.01,2013-06-08 06:59:00,